Cleveland, OH

8:36 AM EST on February 08, 2016 (GMT -0500)
Burke Lakefront

Weather History for KBKL - January, 2013

Change the Weather History Date:

Friday, January 18, 2013

  Actual Average (KCLE) Record (KCLE)
Temperature  
Mean Temperature 30 °F 28 °F  
Max Temperature 37 °F 34 °F 64 °F (1996)
Min Temperature 23 °F 21 °F -14 °F (1994)
Degree Days  
Heating Degree Days 35 37  
Month to date heating degree days 665  
Since 1 July heating degree days 2772  
Cooling Degree Days 0 0  
Month to date cooling degree days 0  
Year to date cooling degree days 0  
Moisture  
Dew Point 14 °F    
Average Humidity 56    
Maximum Humidity 74    
Minimum Humidity 44    
Precipitation  
Precipitation 0.00 in 0.08 in - ()
Month to date precipitation 1.67  
Year to date precipitation 1.67  
Snow  
Snow 0.00 in 0.70 in - ()
Month to date snowfall 10.8  
Since 1 July snowfall 29.4  
Snow Depth -    
Sea Level Pressure  
Sea Level Pressure 30.35 in    
Wind  
Wind Speed 17 mph (SW)    
Max Wind Speed 28 mph    
Max Gust Speed 41 mph    
Visibility 10 miles    
Events      
T = Trace of Precipitation, MM = Missing Value Source: NWS Daily Summary

Daily Weather History Graph

Daily Weather History Graph

Search for Another Location

Airport or City:

Trip Planner

Search our weather history database for the weather conditions in past years. The results will help you decide how hot, cold, wet, or windy it might be!

Date:

Astronomy

Jan. 18, 2013 Rise Set
Actual Time 7:49 AM EST 5:25 PM EST
Civil Twilight 7:18 AM EST 5:55 PM EST
Nautical Twilight 6:44 AM EST 6:29 PM EST
Astronomical Twilight 6:11 AM EST 7:03 PM EST
Moon 11:20 AM EST (1/18) 12:20 AM EST (1/18)
Length of Visible Light 10h 37m
Length of Day
9h 36m
Waxing Crescent, 47% of the Moon is Illuminated
Jan 18
Waxing Crescent
Jan 18
First Quarter
Jan 26
Full
Feb 3
Last Quarter
Feb 10
New

Hourly Weather History & Observations

Time (EST) Temp. Windchill Dew Point Humidity Pressure Visibility Wind Dir Wind Speed Gust Speed Precip Events Conditions
12:53 AM 24.1 °F 9.0 °F 12.9 °F 62% 30.33 in 10.0 mi NW 21.9 mph 29.9 mph N/A   Overcast
1:53 AM 23.0 °F 8.0 °F 10.0 °F 58% 30.38 in 10.0 mi NW 20.7 mph 27.6 mph N/A   Overcast
2:53 AM 23.0 °F 7.2 °F 10.0 °F 58% 30.41 in 10.0 mi NW 23.0 mph - N/A   Overcast
3:53 AM 23.0 °F 8.7 °F 10.9 °F 60% 30.42 in 10.0 mi NW 18.4 mph - N/A   Overcast
4:53 AM 23.0 °F 9.6 °F 10.9 °F 60% 30.43 in 10.0 mi NW 16.1 mph 24.2 mph N/A   Overcast
5:53 AM 23.0 °F 12.4 °F 12.0 °F 63% 30.45 in 10.0 mi WNW 10.4 mph - N/A   Overcast
6:53 AM 23.0 °F 12.4 °F 12.9 °F 65% 30.45 in 10.0 mi WNW 10.4 mph - N/A   Overcast
7:53 AM 23.0 °F 13.1 °F 15.1 °F 72% 30.46 in 9.0 mi SW 9.2 mph - 0.00 in   Overcast
8:23 AM 23.0 °F 12.4 °F 15.8 °F 74% 30.46 in 10.0 mi SW 10.4 mph - N/A   Overcast
8:53 AM 23.0 °F 11.7 °F 14.0 °F 68% 30.49 in 10.0 mi SW 11.5 mph - N/A   Overcast
9:44 AM 24.8 °F 14.6 °F 12.2 °F 59% 30.47 in 10.0 mi SW 10.4 mph - N/A   Overcast
9:53 AM 25.0 °F 16.3 °F 14.0 °F 63% 30.49 in 10.0 mi SSW 8.1 mph - N/A   Mostly Cloudy
10:18 AM 26.6 °F 17.5 °F 14.0 °F 59% 30.47 in 9.0 mi SW 9.2 mph - N/A   Mostly Cloudy
10:53 AM 28.0 °F 18.6 °F 15.1 °F 58% 30.48 in 10.0 mi SSW 10.4 mph - N/A   Clear
11:53 AM 30.0 °F 20.0 °F 14.0 °F 51% 30.44 in 10.0 mi WSW 12.7 mph - N/A   Clear
12:53 PM 32.0 °F 22.1 °F 15.1 °F 50% 30.40 in 10.0 mi SW 13.8 mph 19.6 mph N/A   Scattered Clouds
1:53 PM 33.1 °F 23.4 °F 15.1 °F 48% 30.37 in 10.0 mi SSW 13.8 mph 20.7 mph N/A   Scattered Clouds
2:53 PM 33.1 °F 23.9 °F 15.1 °F 48% 30.33 in 10.0 mi SSW 12.7 mph - N/A   Overcast
3:53 PM 35.1 °F 25.2 °F 15.1 °F 44% 30.30 in 10.0 mi South 16.1 mph 24.2 mph N/A   Mostly Cloudy
4:53 PM 34.0 °F 23.0 °F 15.1 °F 46% 30.28 in 10.0 mi South 18.4 mph 29.9 mph N/A   Scattered Clouds
5:53 PM 33.1 °F 22.6 °F 17.1 °F 52% 30.25 in 10.0 mi South 16.1 mph 25.3 mph N/A   Clear
6:53 PM 33.1 °F 22.6 °F 17.1 °F 52% 30.21 in 10.0 mi South 16.1 mph 23.0 mph N/A   Clear
7:53 PM 33.1 °F 21.2 °F 17.1 °F 52% 30.19 in 10.0 mi South 20.7 mph 34.5 mph N/A   Clear
8:53 PM 33.1 °F 20.6 °F 18.0 °F 54% 30.15 in 10.0 mi South 23.0 mph 36.8 mph N/A   Partly Cloudy
9:53 PM 35.1 °F 23.0 °F 17.1 °F 48% 30.12 in 10.0 mi South 24.2 mph 39.1 mph N/A   Overcast
10:53 PM 37.0 °F 25.1 °F 17.1 °F 44% 30.08 in 10.0 mi South 26.5 mph 40.3 mph N/A   Overcast
11:53 PM 37.0 °F 24.9 °F 18.0 °F 46% 30.06 in 10.0 mi South 27.6 mph 41.4 mph N/A   Overcast